Starlink 11285

operational
NORAD ID: 61578 Int'l Des: 2024-187 Owner: SPXS Country: US Constellation: starlink
LEOCIRCULAR

About Starlink 11285

Description loading...

Live Position

Loading 3D Globe...

Upcoming Passes

Altitude History

Altitude vs Time

uPlot chart will show altitude changes over time

Two-Line Element Set

1 61578U 24187E 25306.99129986 .00000401 00000-0 81697-5 0 9999
2 61578 53.1595 200.6298 0001465 69.3248 290.7927 15.69714682 60801
Epoch: Nov 2, 2025 • Age: 39 hours

Current Status

Altitude 378.0 km
Velocity 7.68 km/s
Sub-Earth Point -50.21°S, 165.89°E
Launch Date Oct 18, 2024
Age 1 years
Type internet

Technical Details

Classification Payload
Mass 960.00 kg
Dry Mass 910.00 kg
Total Mass 960.00 kg
Length 0.30 m
Diameter 4.10 m
Span 29.00 m
Shape Box + pan
Manufacturer SPXS
Bus Type Starlink V2MD
Phase Status In Orbit
Owner/State SPXS/US

Large Constellations

Loading constellations...